Regional Weather Roundup
Issued by NWS

Home | Current Version | Previous Version | Text Only | Print | Product List | Glossary Off
Versions: 1 2 3 4 5 6 7 8 9 10 11 12 13 14 15 16 17 18 19 20 21 22 23 24 25 26 27 28 29 30 31 32 33 34 35 36 37 38 39 40 41 42 43 44 45 46 47 48 49 50

000
ASUS43 KLMK 170810
RWRKY
KENTUCKY REGIONAL WEATHER ROUNDUP
NATIONAL WEATHER SERVICE LOUISVILLE KY
300 AM EST TUE JAN 17 2017

NOTE "FAIR" INDICATES FEW OR NO CLOUDS BELOW 12,000 FEET
WITH NO SIGNIFICANT WEATHER AND/OR OBSTRUCTIONS TO VISIBILITY.

KYZ001>023-026-027-061>063-070>075-170900-
WESTERN AND SOUTH CENTRAL KENTUCKY

CITY           SKY/WX    TMP DP  RH WIND       PRES   REMARKS
PADUCAH        CLOUDY    63  59  87 SW13      29.92R
HENDERSON      CLOUDY    59  55  88 S13       29.89F
OWENSBORO      CLOUDY    61  57  88 S12       29.93S
HOPKINSVILLE   DRIZZLE   61  61 100 SW12      29.97R
BOWLING GREEN  LGT RAIN  60  56  86 SW12G18   30.00R FOG
GLASGOW        RAIN      58  58 100 SE8       29.99F
$$

KYZ024-025-028>034-038-045-046-053-170900-
NORTH CENTRAL KENTUCKY

CITY           SKY/WX    TMP DP  RH WIND       PRES   REMARKS
LOUISVILLE/SDF LGT RAIN  59  56  89 S12       29.97F FOG
LOUISVILLE/LOU RAIN      59  56  89 S8        29.97F FOG
FORT KNOX      LGT RAIN  57  57 100 S12       29.96S
$$

KYZ035>037-039>044-047>052-055>060-089>105-170900-
NORTHEAST KENTUCKY

CITY           SKY/WX    TMP DP  RH WIND       PRES   REMARKS
LEXINGTON      RAIN      57  55  93 S10       30.03S FOG
COVINGTON      LGT RAIN  57  55  93 S12       29.98R
FRANKFORT      RAIN      58  54  86 S9        30.01R FOG
$$

KYZ054-064>069-076>088-106>120-170900-
SOUTHEAST KENTUCKY

CITY           SKY/WX    TMP DP  RH WIND       PRES   REMARKS
JACKSON        LGT RAIN  58  52  80 S6        30.08F
LONDON         RAIN      57  52  83 S5        30.09R
SOMERSET       RAIN      55  55 100 S5        30.08S
MIDDLESBORO    CLOUDY    59  53  80 S8        30.12F
MONTICELLO     LGT RAIN  58  55  90 VRB6      30.08R
$$





USA.gov is the U.S. government's official web portal to all federal, state and local government web resources and services.